AFR78WT EDDF-LFPG

Flight info

Callsign AFR78WT
Flight time 0h 56m
Altitude 24000
Route SOBRA2L/18 SOBRA Y180 DIK UN857 TOLVU/N0354F230 DCT RAPOR DCT VEDUS
Aircraft E170/M-SDE3GILORVWY/S

Departure

Time 2026-05-04 18:48
Airport Frankfurt Main Airport (EDDF)

Arrival

Time 2026-05-04 19:45
Airport Charles de Gaulle International Airport (LFPG)
Time Latitude Longitude Altitude Speed Heading
2026-05-04 18:19 50.04800 8.58469 369 ft 0 kts 159°
2026-05-04 18:30 50.04808 8.58464 369 ft 4 kts 160°
2026-05-04 18:31 50.04832 8.58453 369 ft 4 kts 167°
2026-05-04 18:31 50.04858 8.58448 369 ft 4 kts 185°
2026-05-04 18:31 50.04876 8.58465 369 ft 2 kts 249°
2026-05-04 18:31 50.04878 8.58473 369 ft 0 kts 250°
2026-05-04 18:35 50.04877 8.58472 369 ft 1 kts 251°
2026-05-04 18:35 50.04875 8.58446 370 ft 4 kts 267°
2026-05-04 18:35 50.04873 8.58388 370 ft 7 kts 264°
2026-05-04 18:35 50.04859 8.58296 370 ft 11 kts 252°
2026-05-04 18:36 50.04830 8.58173 371 ft 13 kts 249°
2026-05-04 18:36 50.04792 8.58023 370 ft 17 kts 241°
2026-05-04 18:36 50.04705 8.57873 369 ft 20 kts 239°
2026-05-04 18:36 50.04653 8.57670 369 ft 21 kts 250°
2026-05-04 18:37 50.04602 8.57448 365 ft 22 kts 250°
2026-05-04 18:37 50.04544 8.57210 361 ft 24 kts 250°
2026-05-04 18:37 50.04487 8.56973 359 ft 23 kts 250°
2026-05-04 18:37 50.04436 8.56758 365 ft 21 kts 250°
2026-05-04 18:38 50.04387 8.56532 358 ft 24 kts 251°
2026-05-04 18:38 50.04324 8.56290 357 ft 19 kts 248°
2026-05-04 18:38 50.04281 8.56116 353 ft 18 kts 250°
2026-05-04 18:38 50.04241 8.55940 351 ft 18 kts 250°
2026-05-04 18:39 50.04197 8.55749 351 ft 19 kts 242°
2026-05-04 18:39 50.04149 8.55564 359 ft 19 kts 251°
2026-05-04 18:39 50.04104 8.55373 355 ft 17 kts 249°
2026-05-04 18:39 50.04063 8.55199 355 ft 19 kts 249°
2026-05-04 18:40 50.04012 8.54984 350 ft 19 kts 249°
2026-05-04 18:40 50.03979 8.54849 356 ft 21 kts 250°
2026-05-04 18:40 50.03926 8.54628 347 ft 21 kts 249°
2026-05-04 18:40 50.03875 8.54414 349 ft 21 kts 246°
2026-05-04 18:41 50.03798 8.54210 348 ft 22 kts 248°
2026-05-04 18:41 50.03746 8.53996 346 ft 21 kts 249°
2026-05-04 18:41 50.03700 8.53803 337 ft 19 kts 250°
2026-05-04 18:41 50.03657 8.53610 334 ft 21 kts 249°
2026-05-04 18:42 50.03605 8.53390 332 ft 23 kts 246°
2026-05-04 18:42 50.03545 8.53159 333 ft 22 kts 248°
2026-05-04 18:42 50.03496 8.52963 338 ft 18 kts 249°
2026-05-04 18:42 50.03471 8.52864 349 ft 0 kts 246°
2026-05-04 18:45 50.03468 8.52855 347 ft 2 kts 246°
2026-05-04 18:45 50.03464 8.52842 344 ft 0 kts 246°
2026-05-04 18:45 50.03461 8.52831 350 ft 2 kts 247°
2026-05-04 18:45 50.03454 8.52804 349 ft 4 kts 248°
2026-05-04 18:46 50.03442 8.52759 349 ft 5 kts 246°
2026-05-04 18:46 50.03435 8.52732 348 ft 0 kts 247°
2026-05-04 18:46 50.03431 8.52717 350 ft 3 kts 248°
2026-05-04 18:47 50.03420 8.52674 348 ft 6 kts 249°
2026-05-04 18:47 50.03386 8.52609 347 ft 10 kts 211°
2026-05-04 18:47 50.03339 8.52594 346 ft 0 kts 179°
2026-05-04 18:47 50.03337 8.52594 346 ft 2 kts 179°
2026-05-04 18:48 50.03209 8.52595 343 ft 54 kts 179°
2026-05-04 18:48 50.02558 8.52601 357 ft 130 kts 179°
2026-05-04 18:48 50.01479 8.52641 630 ft 167 kts 180°
2026-05-04 18:48 50.00316 8.52705 1615 ft 167 kts 170°
2026-05-04 18:49 49.99160 8.53379 2128 ft 189 kts 164°
2026-05-04 18:49 49.97807 8.53612 2795 ft 199 kts 178°
2026-05-04 18:49 49.96398 8.53699 3461 ft 212 kts 179°
2026-05-04 18:49 49.94861 8.53764 4006 ft 228 kts 179°
2026-05-04 18:50 49.93253 8.53815 4785 ft 240 kts 179°
2026-05-04 18:50 49.91493 8.53874 5460 ft 256 kts 179°
2026-05-04 18:50 49.89713 8.53885 6299 ft 260 kts 186°
2026-05-04 18:50 49.87922 8.53457 7143 ft 262 kts 191°
2026-05-04 18:51 49.86119 8.52739 7942 ft 264 kts 198°
2026-05-04 18:51 49.84401 8.51825 8672 ft 267 kts 200°
2026-05-04 18:51 49.82647 8.50844 9416 ft 269 kts 200°
2026-05-04 18:51 49.80898 8.49855 10106 ft 272 kts 201°
2026-05-04 18:52 49.79066 8.48818 10432 ft 288 kts 201°
2026-05-04 18:52 49.77283 8.47384 10861 ft 297 kts 221°
2026-05-04 18:52 49.76101 8.44776 11502 ft 303 kts 248°
2026-05-04 18:52 49.75857 8.41524 12177 ft 312 kts 275°
2026-05-04 18:53 49.76379 8.38236 12874 ft 317 kts 284°
2026-05-04 18:53 49.76994 8.34901 13609 ft 320 kts 281°
2026-05-04 18:53 49.77535 8.31586 14282 ft 324 kts 281°
2026-05-04 18:53 49.78076 8.28211 14971 ft 327 kts 281°
2026-05-04 18:54 49.78625 8.24783 15687 ft 330 kts 281°
2026-05-04 18:54 49.79180 8.21313 16386 ft 334 kts 281°
2026-05-04 18:54 49.79741 8.17799 17103 ft 338 kts 281°
2026-05-04 18:54 49.80308 8.14249 17835 ft 341 kts 281°
2026-05-04 18:55 49.80879 8.10663 18537 ft 345 kts 281°
2026-05-04 18:55 49.82035 8.03379 19934 ft 352 kts 280°
2026-05-04 18:55 49.82593 7.99839 20609 ft 356 kts 280°
2026-05-04 18:56 49.83190 7.96046 21295 ft 360 kts 280°
2026-05-04 18:56 49.83777 7.92313 21943 ft 363 kts 280°
2026-05-04 18:56 49.84384 7.88440 22582 ft 367 kts 280°
2026-05-04 18:56 49.84988 7.84581 23193 ft 370 kts 280°
2026-05-04 18:57 49.85539 7.80666 23718 ft 375 kts 279°
2026-05-04 18:57 49.86202 7.76777 23857 ft 372 kts 281°
2026-05-04 18:57 49.86816 7.72879 23931 ft 375 kts 280°
2026-05-04 18:57 49.87429 7.68942 23964 ft 376 kts 280°
2026-05-04 18:58 49.88038 7.65011 23981 ft 375 kts 280°
2026-05-04 18:58 49.88646 7.61081 23994 ft 375 kts 280°
2026-05-04 18:58 49.89254 7.57136 23996 ft 375 kts 280°
2026-05-04 18:58 49.89850 7.53260 23989 ft 375 kts 279°
2026-05-04 18:59 49.90463 7.49270 23986 ft 374 kts 280°
2026-05-04 18:59 49.91065 7.45340 24003 ft 374 kts 279°
2026-05-04 18:59 49.91640 7.41403 23994 ft 375 kts 279°
2026-05-04 18:59 49.92240 7.37465 23992 ft 374 kts 280°
2026-05-04 19:00 49.92827 7.33593 24000 ft 374 kts 280°
2026-05-04 19:00 49.93430 7.29611 24000 ft 374 kts 280°
2026-05-04 19:00 49.94068 7.25695 23991 ft 375 kts 282°
2026-05-04 19:00 49.94713 7.21847 23998 ft 373 kts 278°
2026-05-04 19:01 49.95238 7.17895 24000 ft 373 kts 279°
2026-05-04 19:01 49.95821 7.13976 23999 ft 373 kts 280°
2026-05-04 19:01 49.96409 7.10045 23994 ft 373 kts 280°
2026-05-04 19:01 49.96996 7.06121 23988 ft 373 kts 280°
2026-05-04 19:02 49.97581 7.02200 23988 ft 373 kts 280°
2026-05-04 19:02 49.98163 6.98290 23993 ft 373 kts 279°
2026-05-04 19:02 49.98667 6.94347 23980 ft 371 kts 275°
2026-05-04 19:02 49.98967 6.90374 23974 ft 370 kts 272°
2026-05-04 19:03 49.99142 6.86388 23966 ft 368 kts 267°
2026-05-04 19:03 49.99081 6.82422 23972 ft 368 kts 265°
2026-05-04 19:03 49.98981 6.78452 23972 ft 367 kts 264°
2026-05-04 19:03 49.98863 6.74484 23979 ft 367 kts 264°
2026-05-04 19:04 49.98742 6.70529 23970 ft 367 kts 264°
2026-05-04 19:04 49.98621 6.66571 23973 ft 367 kts 264°
2026-05-04 19:04 49.98494 6.62616 23978 ft 366 kts 263°
2026-05-04 19:04 49.98125 6.58721 23977 ft 364 kts 255°
2026-05-04 19:05 49.97513 6.54918 23975 ft 363 kts 252°
2026-05-04 19:05 49.96792 6.51170 23967 ft 361 kts 248°
2026-05-04 19:05 49.95853 6.47566 23969 ft 360 kts 245°
2026-05-04 19:05 49.94868 6.43997 23974 ft 360 kts 244°
2026-05-04 19:06 49.93865 6.40443 23968 ft 359 kts 244°
2026-05-04 19:06 49.92858 6.36893 23965 ft 359 kts 244°
2026-05-04 19:06 49.91851 6.33348 23970 ft 358 kts 244°
2026-05-04 19:06 49.90847 6.29827 23969 ft 358 kts 243°
2026-05-04 19:07 49.89804 6.26350 23958 ft 357 kts 242°
2026-05-04 19:07 49.88676 6.22932 23959 ft 354 kts 237°
2026-05-04 19:07 49.87399 6.19656 23972 ft 355 kts 236°
2026-05-04 19:07 49.86099 6.16396 23965 ft 354 kts 236°
2026-05-04 19:08 49.84799 6.13174 23954 ft 354 kts 236°
2026-05-04 19:08 49.83492 6.09941 23964 ft 354 kts 236°
2026-05-04 19:08 49.82189 6.06722 23968 ft 353 kts 236°
2026-05-04 19:08 49.80892 6.03519 23966 ft 353 kts 236°
2026-05-04 19:09 49.79578 6.00281 23966 ft 353 kts 236°
2026-05-04 19:09 49.78269 5.97056 23968 ft 354 kts 236°
2026-05-04 19:09 49.76959 5.93832 23732 ft 355 kts 237°
2026-05-04 19:09 49.75677 5.90532 23994 ft 353 kts 239°
2026-05-04 19:10 49.74550 5.87174 23979 ft 353 kts 240°
2026-05-04 19:10 49.73485 5.83733 23974 ft 357 kts 244°
2026-05-04 19:10 49.72596 5.80128 23960 ft 359 kts 246°
2026-05-04 19:10 49.71737 5.76502 23953 ft 360 kts 247°
2026-05-04 19:11 49.70893 5.72867 23967 ft 360 kts 247°
2026-05-04 19:11 49.70046 5.69223 23971 ft 360 kts 247°
2026-05-04 19:11 49.69199 5.65583 23962 ft 360 kts 247°
2026-05-04 19:11 49.68349 5.61937 23952 ft 361 kts 247°
2026-05-04 19:12 49.67497 5.58296 23965 ft 361 kts 247°
2026-05-04 19:12 49.65796 5.51038 23971 ft 362 kts 248°
2026-05-04 19:12 49.64937 5.47383 23958 ft 362 kts 248°
2026-05-04 19:13 49.64078 5.43734 23969 ft 362 kts 247°
2026-05-04 19:13 49.63176 5.40102 23955 ft 363 kts 248°
2026-05-04 19:13 49.62368 5.36406 23970 ft 363 kts 249°
2026-05-04 19:13 49.61571 5.32696 23960 ft 364 kts 249°
2026-05-04 19:14 49.60780 5.28984 23954 ft 364 kts 249°
2026-05-04 19:14 49.60084 5.25227 23960 ft 366 kts 255°
2026-05-04 19:14 49.59665 5.21356 23968 ft 368 kts 259°
2026-05-04 19:14 49.59366 5.17453 23953 ft 368 kts 261°
2026-05-04 19:15 49.59216 5.13499 23956 ft 369 kts 265°
2026-05-04 19:15 49.58979 5.09560 23969 ft 368 kts 258°
2026-05-04 19:15 49.58508 5.05690 23953 ft 367 kts 256°
2026-05-04 19:15 49.58055 5.01817 23952 ft 368 kts 259°
2026-05-04 19:16 49.57693 4.97904 23894 ft 369 kts 259°
2026-05-04 19:16 49.57344 4.93989 23638 ft 369 kts 260°
2026-05-04 19:16 49.56993 4.90017 23367 ft 378 kts 260°
2026-05-04 19:16 49.56638 4.86001 23074 ft 379 kts 260°
2026-05-04 19:17 49.56280 4.81980 22772 ft 377 kts 260°
2026-05-04 19:17 49.55924 4.78008 22483 ft 376 kts 260°
2026-05-04 19:17 49.55565 4.74020 22194 ft 374 kts 260°
2026-05-04 19:17 49.55208 4.70065 21907 ft 373 kts 260°
2026-05-04 19:18 49.54848 4.66106 21619 ft 372 kts 260°
2026-05-04 19:18 49.54498 4.62253 21344 ft 370 kts 260°
2026-05-04 19:18 49.54138 4.58324 21064 ft 369 kts 260°
2026-05-04 19:18 49.53777 4.54398 20779 ft 368 kts 260°
2026-05-04 19:19 49.53421 4.50528 20482 ft 367 kts 260°
2026-05-04 19:19 49.53062 4.46647 20185 ft 365 kts 260°
2026-05-04 19:19 49.52703 4.42778 19886 ft 365 kts 260°
2026-05-04 19:19 49.52343 4.38921 19594 ft 364 kts 260°
2026-05-04 19:20 49.51983 4.35072 19302 ft 363 kts 260°
2026-05-04 19:20 49.51622 4.31234 19013 ft 362 kts 260°
2026-05-04 19:20 49.51262 4.27411 18726 ft 361 kts 261°
2026-05-04 19:20 49.50901 4.23589 18442 ft 360 kts 261°
2026-05-04 19:21 49.50540 4.19787 18148 ft 359 kts 261°
2026-05-04 19:21 49.50177 4.15984 17823 ft 358 kts 261°
2026-05-04 19:21 49.49816 4.12204 17506 ft 357 kts 261°
2026-05-04 19:21 49.49454 4.08439 17189 ft 356 kts 261°
2026-05-04 19:22 49.49092 4.04673 16870 ft 355 kts 261°
2026-05-04 19:22 49.48730 4.00929 16559 ft 354 kts 261°
2026-05-04 19:22 49.48368 3.97194 16251 ft 353 kts 261°
2026-05-04 19:22 49.48009 3.93506 15950 ft 352 kts 261°
2026-05-04 19:23 49.47648 3.89803 15647 ft 351 kts 261°
2026-05-04 19:23 49.47285 3.86094 15346 ft 350 kts 261°
2026-05-04 19:23 49.47044 3.83646 15154 ft 349 kts 261°
2026-05-04 19:23 49.46560 3.78733 15011 ft 348 kts 261°
2026-05-04 19:24 49.46318 3.76291 14971 ft 349 kts 261°
2026-05-04 19:24 49.45952 3.72599 14961 ft 350 kts 261°
2026-05-04 19:24 49.45585 3.68913 14950 ft 350 kts 261°
2026-05-04 19:24 49.45150 3.65238 14938 ft 350 kts 252°
2026-05-04 19:25 49.44077 3.61893 14952 ft 350 kts 240°
2026-05-04 19:25 49.42961 3.58582 14959 ft 350 kts 246°
2026-05-04 19:25 49.42073 3.55090 14952 ft 350 kts 250°
2026-05-04 19:25 49.41296 3.51548 14945 ft 350 kts 252°
2026-05-04 19:26 49.40480 3.48027 14950 ft 351 kts 248°
2026-05-04 19:26 49.39557 3.44567 14957 ft 351 kts 249°
2026-05-04 19:26 49.38699 3.41065 14952 ft 351 kts 249°
2026-05-04 19:26 49.37848 3.37551 14948 ft 351 kts 249°
2026-05-04 19:27 49.36999 3.34040 14953 ft 351 kts 249°
2026-05-04 19:27 49.36148 3.30527 14954 ft 351 kts 249°
2026-05-04 19:27 49.35296 3.27019 14949 ft 351 kts 249°
2026-05-04 19:27 49.34445 3.23512 14950 ft 351 kts 249°
2026-05-04 19:28 49.33591 3.20004 14949 ft 351 kts 249°
2026-05-04 19:28 49.32734 3.16495 14949 ft 351 kts 249°
2026-05-04 19:28 49.31878 3.12987 14949 ft 352 kts 249°
2026-05-04 19:28 49.31019 3.09475 14949 ft 352 kts 249°
2026-05-04 19:29 49.30160 3.05970 14948 ft 352 kts 249°
2026-05-04 19:29 49.29297 3.02455 14947 ft 352 kts 249°
2026-05-04 19:29 49.28442 2.98976 14813 ft 353 kts 249°
2026-05-04 19:29 49.27579 2.95471 14565 ft 351 kts 249°
2026-05-04 19:30 49.26720 2.91987 14327 ft 350 kts 249°
2026-05-04 19:30 49.25858 2.88498 14088 ft 349 kts 249°
2026-05-04 19:30 49.24999 2.85024 13849 ft 349 kts 249°
2026-05-04 19:31 49.24595 2.83396 13730 ft 350 kts 249°
2026-05-04 19:31 49.24369 2.82481 13663 ft 348 kts 249°
2026-05-04 19:31 49.23611 2.79425 13427 ft 347 kts 249°
2026-05-04 19:31 49.22756 2.75983 13159 ft 345 kts 249°
2026-05-04 19:32 49.21904 2.72557 12899 ft 344 kts 249°
2026-05-04 19:32 49.21053 2.69143 12642 ft 343 kts 249°
2026-05-04 19:32 49.20205 2.65745 12384 ft 342 kts 249°
2026-05-04 19:32 49.19356 2.62349 12127 ft 341 kts 249°
2026-05-04 19:33 49.18618 2.59140 11886 ft 339 kts 255°
2026-05-04 19:33 49.18160 2.55611 11628 ft 338 kts 264°
2026-05-04 19:33 49.18012 2.52037 11377 ft 334 kts 267°
2026-05-04 19:33 49.17918 2.48555 11050 ft 322 kts 268°
2026-05-04 19:34 49.17843 2.45181 10663 ft 314 kts 268°
2026-05-04 19:34 49.17739 2.41902 10294 ft 307 kts 266°
2026-05-04 19:34 49.17680 2.38649 9919 ft 303 kts 270°
2026-05-04 19:34 49.17652 2.35460 9529 ft 297 kts 269°
2026-05-04 19:35 49.17615 2.32331 9123 ft 293 kts 269°
2026-05-04 19:35 49.17337 2.29285 8722 ft 289 kts 250°
2026-05-04 19:35 49.16553 2.26473 8341 ft 288 kts 244°
2026-05-04 19:35 49.15671 2.23731 7969 ft 287 kts 243°
2026-05-04 19:36 49.14759 2.21021 7615 ft 285 kts 242°
2026-05-04 19:36 49.13844 2.18346 7295 ft 284 kts 242°
2026-05-04 19:36 49.12926 2.15682 6983 ft 283 kts 242°
2026-05-04 19:36 49.12145 2.13425 6706 ft 280 kts 242°
2026-05-04 19:37 49.11241 2.10810 6385 ft 275 kts 242°
2026-05-04 19:37 49.10281 2.08322 6031 ft 270 kts 229°
2026-05-04 19:37 49.08772 2.06724 5692 ft 264 kts 197°
2026-05-04 19:37 49.06983 2.06555 5358 ft 257 kts 165°
2026-05-04 19:38 49.05406 2.07682 5070 ft 249 kts 146°
2026-05-04 19:38 49.03977 2.09138 4784 ft 246 kts 143°
2026-05-04 19:38 49.02590 2.10655 4479 ft 243 kts 141°
2026-05-04 19:38 49.01378 2.12406 4179 ft 239 kts 131°
2026-05-04 19:39 49.00534 2.14479 4041 ft 227 kts 103°
2026-05-04 19:39 49.00464 2.16824 4006 ft 219 kts 82°
2026-05-04 19:39 49.00649 2.19071 3997 ft 216 kts 84°
2026-05-04 19:39 49.00743 2.21318 4011 ft 214 kts 85°
2026-05-04 19:40 49.00856 2.23470 4028 ft 194 kts 84°
2026-05-04 19:40 49.00984 2.25537 3806 ft 193 kts 84°
2026-05-04 19:40 49.01092 2.27544 3568 ft 192 kts 84°
2026-05-04 19:40 49.01192 2.29329 3359 ft 189 kts 83°
2026-05-04 19:41 49.01301 2.31265 3123 ft 184 kts 84°
2026-05-04 19:41 49.01407 2.33158 2908 ft 175 kts 84°
2026-05-04 19:41 49.01509 2.34986 2674 ft 172 kts 84°
2026-05-04 19:41 49.01610 2.36790 2450 ft 170 kts 84°
2026-05-04 19:42 49.01707 2.38541 2226 ft 163 kts 84°
2026-05-04 19:42 49.01797 2.40183 2042 ft 152 kts 84°
2026-05-04 19:42 49.01885 2.41776 1842 ft 151 kts 84°
2026-05-04 19:42 49.01972 2.43368 1645 ft 147 kts 84°
2026-05-04 19:43 49.02056 2.44880 1436 ft 141 kts 84°
2026-05-04 19:43 49.02137 2.46360 1241 ft 140 kts 84°
2026-05-04 19:43 49.02215 2.47796 1015 ft 130 kts 84°
2026-05-04 19:43 49.02288 2.49150 813 ft 126 kts 84°
2026-05-04 19:44 49.02357 2.50457 566 ft 121 kts 85°
2026-05-04 19:44 49.02424 2.51718 448 ft 120 kts 84°
2026-05-04 19:44 49.02496 2.52992 351 ft 117 kts 84°
2026-05-04 19:44 49.02564 2.54120 352 ft 93 kts 86°
2026-05-04 19:45 49.02595 2.54873 356 ft 51 kts 86°
2026-05-04 19:45 49.02572 2.55276 354 ft 31 kts 108°
2026-05-04 19:45 49.02502 2.55513 354 ft 15 kts 114°
2026-05-04 19:45 49.02443 2.55607 357 ft 14 kts 164°
2026-05-04 19:46 49.02401 2.55615 352 ft 4 kts 174°
2026-05-04 19:46 49.02354 2.55622 352 ft 13 kts 174°
2026-05-04 19:46 49.02254 2.55634 352 ft 16 kts 175°
2026-05-04 19:46 49.02140 2.55646 352 ft 17 kts 174°
2026-05-04 19:47 49.02079 2.55779 355 ft 18 kts 89°
2026-05-04 19:47 49.02090 2.55984 353 ft 21 kts 84°
2026-05-04 19:47 49.02096 2.56212 355 ft 22 kts 103°
2026-05-04 19:47 49.02025 2.56424 356 ft 22 kts 95°
2026-05-04 19:48 49.02035 2.56664 357 ft 23 kts 85°
2026-05-04 19:48 49.02050 2.56917 353 ft 25 kts 84°
2026-05-04 19:48 49.02063 2.57168 358 ft 25 kts 85°
2026-05-04 19:48 49.02077 2.57424 356 ft 23 kts 85°
2026-05-04 19:49 49.02090 2.57662 353 ft 22 kts 85°
2026-05-04 19:49 49.02063 2.57896 353 ft 24 kts 117°
2026-05-04 19:49 49.01941 2.58080 354 ft 26 kts 156°
2026-05-04 19:49 49.01769 2.58133 353 ft 21 kts 174°
2026-05-04 19:50 49.01618 2.58151 355 ft 23 kts 177°
2026-05-04 19:50 49.01452 2.58166 358 ft 24 kts 175°
2026-05-04 19:50 49.01281 2.58193 353 ft 26 kts 173°
2026-05-04 19:50 49.01110 2.58216 358 ft 24 kts 176°
2026-05-04 19:51 49.00959 2.58241 353 ft 22 kts 153°
2026-05-04 19:51 49.00927 2.58456 356 ft 23 kts 85°
2026-05-04 19:51 49.00941 2.58710 353 ft 25 kts 85°
2026-05-04 19:51 49.00963 2.58981 353 ft 27 kts 73°
2026-05-04 19:52 49.00992 2.59253 353 ft 25 kts 85°
2026-05-04 19:52 49.00992 2.59504 357 ft 21 kts 127°
2026-05-04 19:52 49.00857 2.59543 352 ft 21 kts 175°
2026-05-04 19:52 49.00702 2.59565 351 ft 24 kts 175°
2026-05-04 19:53 49.00541 2.59586 355 ft 21 kts 176°
2026-05-04 19:53 49.00396 2.59603 355 ft 18 kts 174°
2026-05-04 19:53 49.00289 2.59620 356 ft 9 kts 173°
2026-05-04 19:53 49.00283 2.59622 354 ft 1 kts 153°
2026-05-04 19:54 49.00275 2.59654 358 ft 7 kts 92°
2026-05-04 19:54 49.00280 2.59765 351 ft 14 kts 84°
2026-05-04 19:54 49.00290 2.59925 351 ft 16 kts 84°
2026-05-04 19:54 49.00301 2.60086 351 ft 14 kts 84°
2026-05-04 19:55 49.00314 2.60193 354 ft 8 kts 42°
2026-05-04 19:55 49.00373 2.60200 354 ft 9 kts 354°
2026-05-04 19:55 49.00433 2.60189 353 ft 7 kts 335°
2026-05-04 19:55 49.00445 2.60149 351 ft 4 kts 271°
2026-05-04 19:56 49.00446 2.60118 354 ft 0 kts 272°
2026-05-04 19:56 49.00446 2.60117 354 ft 0 kts 271°